Flag Weather past 2 weeks in Alfeld (Leine), Lower Saxony, Germany

Now
37 °F

Clear.


Feels Like: 28 °F
Forecast: 31 / 40 °F
Wind: 17 mph from Southeast

Location: Braunschweig

Current Time: Nov 26, 2014 at 9:36:51 PM

Latest Report: Nov 26, 2014 at 9:20 PM


Visibility: 10 mi

Pressure: 30.07 "Hg

Humidity: 81%

Dew point: 32 °F

Location of Alfeld (Leine)Location

Historic Weather in Alfeld (Leine) — Graph

°F

Alfeld (Leine) temperature yesterday

Maximum temperature yesterday: 45 °F (at 12:50 PM)
Minimum temperature yesterday: 37 °F (at 6:50 AM)
Average temperature yesterday: 42 °F

Past Weeks' High & Low Weather Summary

 TemperatureHumidityPressure
High54 °F (Nov 14, 12:50 PM)100% (Nov 11, 8:20 PM)30.36 "Hg (Nov 11, 8:20 PM)
Low37 °F (Nov 22, 7:50 AM)72% (Nov 17, 3:20 PM)29.50 "Hg (Nov 16, 1:20 PM)
Average46 °F96%30.01 "Hg
* Reported Nov 11 8:20 PM — Nov 26 8:20 PM, Alfeld (Leine), Weather by CustomWeather, © 2014

Note: Actual official high and low records may vary slightly from our data, if they occured in-between our weather recording intervals... More about our weather records

Advertising

Alfeld (Leine) weather history for previous 24 hours

 ConditionsComfort  
Time TempWeatherWind HumidityBarometerVisibility
8:20 PM
Nov 26
39 °FClear.18 mph87%30.07 "Hg10 mi
7:50 PM39 °FPassing clouds.17 mph93%30.07 "HgN/A
7:20 PM39 °FPassing clouds.15 mph93%30.07 "HgN/A
6:50 PM39 °FPartly cloudy.17 mph93%30.07 "HgN/A
6:20 PM39 °FPartly cloudy.17 mph93%30.07 "HgN/A
5:50 PM39 °FPassing clouds.16 mph93%30.09 "HgN/A
5:20 PM39 °FPassing clouds.15 mph87%30.09 "HgN/A
4:50 PM39 °FClear.16 mph87%30.09 "Hg10 mi
4:20 PM39 °FClear.14 mph93%30.09 "Hg10 mi
3:50 PM39 °FSunny.16 mph93%30.09 "Hg10 mi
3:20 PM41 °FPassing clouds.14 mph81%30.09 "HgN/A
2:50 PM41 °FPassing clouds.17 mph81%30.09 "HgN/A
2:20 PM41 °FScattered clouds.16 mph81%30.12 "HgN/A
1:50 PM41 °FPassing clouds.16 mph81%30.12 "HgN/A
1:20 PM41 °FScattered clouds.16 mph81%30.12 "HgN/A
12:50 PM41 °FPassing clouds.16 mph81%30.12 "HgN/A
12:20 PM39 °FScattered clouds.15 mph87%30.15 "HgN/A
11:20 AM39 °FPartly sunny.16 mph93%30.18 "Hg5 mi
10:50 AM37 °FPartly sunny.16 mph93%30.18 "HgN/A
10:20 AM37 °FBroken clouds.15 mph100%30.18 "Hg6 mi
9:50 AM37 °FBroken clouds.14 mph100%30.18 "Hg5 mi
9:20 AM37 °FPartly sunny.16 mph93%30.18 "Hg5 mi
8:50 AM37 °FPartly sunny.14 mph93%30.18 "Hg6 mi
8:20 AM37 °FPartly sunny.16 mph93%30.18 "HgN/A
7:50 AM37 °FPassing clouds.20 mph93%30.18 "HgN/A
7:20 AM39 °FPassing clouds.17 mph87%30.18 "HgN/A
6:50 AM39 °FPassing clouds.16 mph93%30.18 "HgN/A
9:50 PM
Nov 25
41 °FLow clouds.9 mph100%30.30 "Hg5 mi
9:20 PM41 °FLow clouds.10 mph100%30.30 "Hg4 mi
Weather by CustomWeather, © 2014

See weather overviewHow to use our weather pages